Hourly Data Report for October 01, 2017

All times are specified in Local Standard Time (LST). Add 1 hour to adjust for Daylight Saving Time where and when it is observed.

GILLAM A
MANITOBA

56°21'28.000" N
94°42'39.000" W
145.10 m
5061022
71912
YGX

Download Data

Hourly Data (October 2017)
Hourly Data Report for October 1, 2017
Temp Definition
°C
Dew Point Temp Definition
°C
Rel Hum Definition
%
Wind Dir Definition
10's deg

Wind Spd Definition
km/h
Visibility Definition
km
Stn Press Definition
kPa
Hmdx Definition


Wind Chill Definition


Weather Definition


TIME
00:00 Legend Double Dagger 7.4 7.0 98 7 10 0.4 99.48     Fog
01:00 Legend Double Dagger 7.0 6.6 98 9 12 0.2 99.47     Fog
02:00 Legend Double Dagger 7.0 6.7 98 9 10 0.2 99.46     Fog
03:00 Legend Double Dagger 6.8 6.5 98 9 13 0.2 99.44     Fog
04:00 Legend Double Dagger 6.7 6.4 98 9 11 0.2 99.43     Fog
05:00 Legend Double Dagger 6.5 6.2 98 9 11 0.0 99.46     Fog
06:00 Legend Double Dagger 6.6 6.4 98 9 10 0.0 99.43     Fog
07:00 Legend Double Dagger 6.6 6.3 98 9 11 0.8 99.43     Fog
08:00 Legend Double Dagger 6.1 5.8 98 10 13 4.8 99.44     Rain,Fog
09:00 Legend Double Dagger 6.4 6.0 97 10 13 9.7 99.43     Rain,Fog
10:00 Legend Double Dagger 6.9 6.3 96 9 9 24.1 99.38     Rain
11:00 Legend Double Dagger 8.6 7.3 92 10 14 22.5 99.37     Rain
12:00 Legend Double Dagger 9.1 7.6 91 10 13 20.9 99.36     Rain
13:00 Legend Double Dagger 10.0 8.2 88 9 13 24.1 99.31     LegendNANA
14:00 Legend Double Dagger 11.8 8.5 80 11 13 24.1 99.24     LegendNANA
15:00 Legend Double Dagger 12.6 8.5 76 10 17 24.1 99.18     Cloudy
16:00 Legend Double Dagger 13.1 8.7 74 11 14 24.1 99.15     LegendNANA
17:00 Legend Double Dagger 12.8 8.7 76 11 11 24.1 99.14     LegendNANA
18:00 Legend Double Dagger 12.2 9.1 81 11 11 19.3 99.14     Rain
19:00 Legend Double Dagger 12.1 8.6 79 11 10 24.1 99.11     Rain
20:00 Legend Double Dagger 11.4 8.3 81 11 13 24.1 99.10     LegendNANA
21:00 Legend Double Dagger 10.6 8.1 84 11 12 24.1 99.07     Mostly Cloudy
22:00 Legend Double Dagger 10.2 8.2 88 11 13 24.1 99.05     LegendNANA
23:00 Legend Double Dagger 10.6 8.7 88 10 9 24.1 99.02     LegendNANA

Notes on Data Quality.

Legend

  • E = Estimated
  • M = Missing
  • NA = Not Available
  • ‡ = Partner data that is not subject to review by the National Climate Archives
Date modified: